Weather in Zhana-Aul

Russia / Altai Republic     49˚50′45″N   88˚55′21″E
temp.,
°C
wind,
m/s
gust,
m/s
humid.,
%
clouds,
%
prec.,
mm/h
press.,
hPa
HPBL,
m
17 january, sun
sun1701:00−20˚sse114217 0.0 103220
04:00−19˚sse113956 0.0 102920
07:00−18˚sse113862 0.0 102720
10:00−16˚sse113923 0.0 102420
13:00−10˚s016262 0.0 101925
16:00−10˚s225370 0.0 101722
19:00−13˚ssw224282 0.0 101921
22:00−15˚w113867 0.0 102021
18 january, mon
mon1801:00−17˚ne013633 0.0 102120
04:00−17˚s113558 0.0 102120
07:00−19˚s113352 0.0 102020
10:00−18˚s11389 0.0 102020
13:00−13˚ne116010 0.0 101727
16:00−16˚ese116449 0.0 101620
19:00−18˚sw114635 0.0 101820
22:00−19˚wsw11420 0.0 101820
19 january, tue
tue1901:00−18˚ssw11500 0.0 101820
04:00−20˚sw11640 0.0 101920
07:00−20˚s11690 0.0 101920
10:00−18˚sw017146 0.0 102020
13:00−14˚n117745 0.0 101838
16:00−14˚nw118374 0.0 101720
19:00−16˚s127762 0.0 102020
22:00−17˚ssw11780 0.0 102020
20 january, wed
wed2001:00−16˚s127513 0.0 102120
04:00−17˚s11683 0.0 102220
07:00−16˚sw126227 0.0 102120
10:00−14˚ssw126598 0.0 102121
13:00−10˚ssw127791 0.0 101899
16:00−11˚ssw127867 0.0 101821
19:00−12˚s227482 0.0 102122
22:00−13˚s2274100 0.0 102122
21 january, thu
thu2101:00−14˚ssw227497 0.0 102322
04:00−14˚ssw2274100 0.0 102321
07:00−15˚ssw1174100 0.0 102420
10:00−16˚s117269 0.0 102420
13:00−11˚nne017635 0.0 102088
16:00−12˚s117976 0.0 101821
19:00−16˚s227487 0.0 101921
22:00−14˚s2275100 0.0 101721